Location: River House Observatory
(37.8577°N, 76.3548°W)
Time: 16:19:20
(UTC-04:00)

Daily predictions for brighter satellites

Satellite Brightness Start Highest point End
(mag) Time Altitude Azimuth Time Altitude Azimuth Time Altitude Azimuth
BREEZE-M DEB (TANK) 3.9 20:40:50 10° WNW 20:44:39 69° SW 20:58:33 10° SE
Cosmos 1939 Rocket 4.4 20:42:42 10° ESE 20:45:57 23° ENE 20:49:12 10° NNE
OAO 3 Copernicus 4.5 20:42:06 10° W 20:47:06 62° S 20:52:05 10° ESE
ATLAS 3B R/B 4.5 20:44:36 10° ESE 20:47:12 12° ESE 20:49:47 10° E
Resurs 01 Rocket 4.1 20:47:29 10° SSW 20:50:57 22° W 20:54:25 10° NW
Cosmos 2228 4.0 20:50:01 10° NNE 20:53:56 30° ENE 20:57:51 10° SE
Lacrosse 5 rocket 2.9 20:50:32 10° WSW 20:54:08 39° NW 20:57:54 10° NNE
Cosmos 1025 Rocket 3.3 20:50:09 10° S 20:54:32 77° W 20:58:56 10° N
Meteor 1-23 Rocket 4.3 20:49:38 10° S 20:55:07 58° E 21:00:43 10° NNE
Cosmos 2098 Rocket 3.5 20:52:12 10° NNW 20:55:35 54° W 20:59:44 10° S
Cosmos 1743 2.7 20:51:46 10° N 20:55:37 75° E 20:59:25 10° SSE
Cosmos 2251 Rocket 3.8 20:51:05 10° SSW 20:56:23 77° WNW 21:01:45 10° NNE
Cosmos 1892 Rocket 3.6 20:58:16 10° S 21:02:42 88° E 21:07:12 10° N
ERS-1 Rocket 3.1 20:58:12 10° SSE 21:03:09 64° ENE 21:08:07 10° N
Cosmos 1603 4.3 20:58:42 10° SSE 21:03:43 35° ESE 21:08:45 10° NE
USA 234 4.4 20:59:52 10° E 21:05:40 35° NNE 21:11:27 10° NNW
Envisat 3.8 21:02:32 10° SE 21:07:07 35° ENE 21:11:43 10° N
SJ-11-01 4.3 21:04:40 10° SSE 21:09:16 65° ENE 21:13:54 10° N
Meteor 2-9 Rocket 4.4 21:04:51 10° N 21:10:28 58° E 21:16:10 10° SSE
Cosmos 1110 Rocket 4.1 21:05:20 10° NNW 21:10:39 83° WSW 21:15:53 10° SSE
USA 186 3.1 21:10:12 10° SSW 21:12:53 33° W 21:15:26 10° NNW
Meteor 2-4 Rocket 3.9 21:08:59 10° S 21:14:49 88° E 21:20:47 10° N
Abrixas rocket 2.8 21:12:24 10° NW 21:15:45 54° NNE 21:18:26 15° ESE
Okean 2 3.4 21:12:59 10° S 21:17:10 90° WSW 21:21:22 10° N
BREEZE M DEB (TANK) 3.5 21:17:10 10° WNW 21:19:47 24° N 21:21:31 10° ENE
Cosmos 2297 3.9 21:14:53 10° NNW 21:20:35 72° WSW 21:26:17 10° SSE
Tsikada Rocket 4.3 21:17:22 10° SSE 21:23:30 50° E 21:29:38 10° NNE
Cosmos 1726 Rocket 4.5 21:23:59 10° NNW 21:28:17 49° W 21:32:32 10° SSW
Cosmos 1943 4.4 21:25:39 16° SE 21:28:29 23° E 21:32:47 10° NE
YAOGAN 6 4.2 21:27:50 16° ESE 21:29:23 21° ENE 21:32:15 10° NNE
ISS -2.7 21:29:34 10° SSW 21:32:34 34° SE 21:35:33 10° ENE
PSLV R/B 3.2 21:29:11 10° WSW 21:32:43 74° SSE 21:36:17 10° ENE
Cosmos 2285 Rocket 4.2 21:29:18 10° NNW 21:35:37 74° WSW 21:41:43 11° S
CZ-2C R/B 2.9 21:36:56 10° SSW 21:38:44 20° W 21:40:33 10° NW
MetOp-A 4.5 21:35:19 19° SE 21:38:58 49° ENE 21:44:08 10° N
SPOT 5 2.7 21:36:20 19° SSE 21:39:23 62° ENE 21:43:40 10° N
Cosmos 1461 3.0 21:35:42 10° NNW 21:39:56 60° ENE 21:42:09 25° SE
Cosmos 2058 Rocket 4.1 21:37:49 10° NNW 21:41:59 45° W 21:46:08 10° SSW
Cosmos 1602 Rocket 3.6 21:41:18 10° S 21:45:47 87° W 21:50:16 10° N
Cosmos 1464 Rocket 4.3 21:40:08 10° NNW 21:46:13 65° W 21:52:18 10° S
CZ-4 SHROUD 3.1 21:46:44 28° S 21:48:16 88° W 21:51:25 10° NNW
H-2A R/B 3.8 21:48:11 13° E 21:50:04 16° ENE 21:53:03 10° NNE
Cosmos 1825 Rocket 4.4 21:49:41 26° ESE 21:50:59 31° E 21:54:55 10° NNE
Aureole 2 Rocket 4.3 21:49:34 10° SW 21:53:15 35° WNW 21:56:38 10° N
GRACE-1 4.0 21:51:07 10° N 21:54:00 74° W 21:55:07 33° SSW
GRACE-2 4.0 21:51:34 10° N 21:54:26 74° W 21:55:32 33° SSW
Cosmos 1812 Rocket 3.5 21:53:53 10° N 21:58:17 74° E 22:00:27 29° SSE
SPOT 1/Viking Rocket 3.8 21:55:43 27° SE 21:58:18 52° ENE 22:03:19 10° N
Cosmos 1816 Rocket 4.5 21:54:28 12° S 22:00:21 76° E 22:06:42 10° N
Terra 3.5 22:00:40 16° E 22:01:59 18° ENE 22:05:12 10° NNE
Geosat 4.5 21:58:00 10° NE 22:02:41 38° ESE 22:04:15 30° SSE
Cosmos 2034 Rocket 4.4 21:58:30 10° NNW 22:04:47 63° W 22:10:30 13° S
Cosmos 1634 Rocket 4.3 22:00:12 10° N 22:06:09 48° E 22:08:55 29° SE
USA 245 4.3 22:05:43 27° SSE 22:09:07 69° ENE 22:14:27 10° N
H-2A R/B 3.9 22:05:44 10° SSW 22:09:18 27° W 22:12:58 10° NW
SeaSat 1 2.6 22:07:21 28° SSE 22:09:58 70° WSW 22:14:55 10° NNW
Atlas Centaur 2 3.3 22:03:09 10° WSW 22:10:30 47° S 22:15:35 23° ESE
ARGOS 3.3 22:10:34 32° SE 22:12:54 57° ENE 22:18:13 10° N
CZ-4C R/B 4.2 22:12:55 34° E 22:13:44 37° ENE 22:17:34 10° N
Cosmos 2369 Rocket 2.9 22:09:02 10° N 22:14:22 41° ENE 22:16:29 29° ESE
DEBRIS 2.5 22:11:57 10° WNW 22:15:34 47° SW 22:15:34 47° SW
CZ-4B R/B 3.6 22:13:29 10° N 22:18:34 78° WNW 22:22:53 15° SSW
NAVSTAR 52 R/B(PAM-D 4.1 22:19:20 10° W 22:23:37 87° SSW 22:23:41 85° SE
NOAA 11 4.2 22:22:44 38° SE 22:24:46 67° ENE 22:30:09 10° N
COSMOS 2455 3.1 22:20:37 10° SW 22:26:35 69° WNW 22:32:35 10° NNE
Milstar 3 Cent rocket 4.0 22:24:15 10° WSW 22:27:19 14° SSW 22:27:55 14° SSW
Cosmos 2279 Rocket 4.5 22:24:49 10° N 22:30:45 44° ENE 22:32:31 36° ESE
Cosmos 1953 4.3 22:32:11 10° NNE 22:34:19 17° ENE 22:34:19 17° ENE
Cosmos 1953 Rocket 3.4 22:35:33 61° SSE 22:36:14 77° E 22:40:40 10° N
ATLAS 3B R/B 2.9 22:29:07 10° SSW 22:36:47 72° ESE 22:44:20 10° NE
Meteor 1-22 Rocket 4.2 22:32:51 10° N 22:38:25 68° E 22:40:01 47° SE
Cosmos 2346 Rocket 4.5 22:36:44 26° SSW 22:40:23 81° W 22:46:34 10° N
IGS 5A 4.2 22:43:55 39° ENE 22:43:55 39° ENE 22:47:39 10° N
Cosmos 1066 Rocket 4.4 22:43:48 29° SSW 22:46:49 72° W 22:52:37 10° N
USA 234 3.2 22:45:49 42° SSE 22:48:15 76° SW 22:54:51 10° NW
Cosmos 407 Rocket 3.4 22:49:25 49° S 22:50:53 84° ESE 22:56:09 10° NNE
Cosmos 1346 Rocket 3.1 22:56:00 59° W 22:56:08 59° WNW 23:00:00 10° N
DELTA 2 DEB (DPAF) 4.2 22:56:14 62° SW 22:56:43 68° WSW 23:01:12 10° NNW
SL-23 DEB 4.1 22:51:46 10° SW 22:58:08 77° SE 23:01:55 10° NE
Cosmos-2242 3.7 22:54:35 10° N 22:58:21 43° ENE 22:58:21 43° ENE
Lacrosse 4 Rocket 1.4 22:59:11 72° NNW 22:59:11 72° NNW 23:02:59 10° NNE
SL-24 R/B 4.4 22:55:12 10° N 23:00:09 80° E 23:00:48 68° SSE
ISS -1.0 23:06:16 10° W 23:09:02 25° NNW 23:11:48 10° NNE
Cosmos 1954 Rocket 3.9 23:09:47 71° ESE 23:09:53 72° ESE 23:15:11 10° NNE
Cosmos 1758 Rocket 4.1 23:10:06 50° WSW 23:10:35 53° W 23:14:52 10° N
USA 238 DEB 3.8 23:10:59 51° SE 23:11:31 52° ESE 23:18:20 10° NE
USA 238 3.8 23:11:09 51° SE 23:11:38 51° ESE 23:18:26 10° NE
Cosmos 1943 4.1 23:07:20 13° SW 23:12:09 46° WNW 23:17:38 10° N
Cosmos 1842 4.0 23:13:32 51° N 23:13:32 51° N 23:16:32 10° N
Meteor 1-21 4.3 23:11:19 48° SSW 23:12:55 74° W 23:18:45 10° N
CARTOSAT-1 3.7 23:14:29 70° WNW 23:14:29 70° WNW 23:18:32 10° NNW
Cosmos 1758 4.3 23:16:00 10° N 23:19:02 44° NNE 23:19:02 44° NNE
Spot 4 3.8 23:22:16 82° NW 23:22:16 82° NW 23:26:55 10° NNW
Cosmos 1943 Rocket 2.3 23:17:42 10° NNW 23:23:11 58° ENE 23:23:31 57° E
H-2A R/B 2.3 23:28:49 55° WSW 23:28:58 55° W 23:33:54 10° NNW
Cosmos 1092 Rocket 4.1 23:33:02 58° ESE 23:33:18 59° E 23:39:28 10° NNE
Terra 2.6 23:39:33 43° W 23:39:33 43° W 23:43:55 10° NNW
Cosmos 1656 Rocket 4.5 23:35:01 10° N 23:40:20 39° ENE 23:40:41 38° ENE
Cosmos 1842 Rocket 4.4 23:38:21 10° N 23:41:34 47° NNE 23:41:34 47° NNE
Cosmos 1570 Rocket 4.3 23:38:31 10° NNW 23:43:34 62° NE 23:43:34 62° NE
Cosmos 1850 Rocket 4.3 23:46:11 60° NE 23:46:11 60° NE 23:50:33 10° NNE
Nadezhda 4 Rocket 3.9 23:45:01 69° SSW 23:45:49 82° W 23:52:10 10° N
CZ-4C R/B 3.9 23:54:53 21° ENE 23:54:53 21° ENE 23:57:12 10° NE
